Regional Weather Roundup
Issued by NWS Sioux Falls, SD

Home | Current Version | Previous Version | Graphics & Text | Print | Product List | Glossary Off
Versions: 1 2 3 4 5 6 7 8 9 10 11 12 13 14 15 16 17 18 19 20 21 22 23 24 25 26 27 28 29 30 31 32 33 34 35 36 37 38 39 40 41 42 43 44 45 46 47 48 49 50

000
ASUS43 KFSD 170110
RWRFSD

WEATHER ROUNDUP FOR SE SOUTH DAKOTA/SW MINNESOTA/NW IOWA
NATIONAL WEATHER SERVICE SIOUX FALLS SD
800 PM CDT WED AUG 16 2017

NOTE: "FAIR" INDICATES FEW OR NO CLOUDS BELOW 12,000 FEET WITH NO
SIGNIFICANT WEATHER AND OR OBSTRUCTIONS TO VISIBILITY.


SDZ038>040-050-052>070-170200-
SOUTHEAST SOUTH DAKOTA

CITY           SKY/WX    TMP DP  RH WIND       PRES   REMARKS
BROOKINGS      RAIN      65  64  97 N16       29.71F
CHAMBERLAIN    CLOUDY    69  65  89 W9        29.86S
HURON          CLOUDY    67  66  97 NW14      29.78S
MADISON        HVY RAIN  64  64 100 NW9       29.75R
MITCHELL       LGT RAIN  67  65  93 NW13      29.78S
SIOUX FALLS    CLOUDY    67  67 100 NW7       29.72S
WINNER         FAIR      69  62  78 NW10      29.91R
YANKTON        CLOUDY    68  64  88 W14       29.79S
$$

MNZ071-072-080-081-089-090-097-098-170200-
SOUTHWEST MINNESOTA

CITY           SKY/WX    TMP DP  RH WIND       PRES   REMARKS
FAIRMONT       CLOUDY    74  69  85 S14G21    29.63F
JACKSON        CLOUDY    70  64  83 SW10      29.64F
LUVERNE        LGT RAIN  64  63  94 W10       29.70R
MARSHALL       HVY RAIN  66  65  96 N18G24    29.65R FOG
MONTEVIDEO     RAIN      66  66 100 NE17      29.68F
PIPESTONE      RAIN      66  64  94 NW10      29.69R
REDWOOD FALLS  RAIN      69  67  93 NE6       29.60F VSB 1
TRACY          DRIZZLE   67  67 100 NW12      29.62F
WINDOM         CLEAR     72  66  83 S7        29.61F
WORTHINGTON    LGT RAIN  66  65  96 W17G23    29.65S FOG
$$

IAZ001>003-012>014-020>022-031-032-NEZ013-014-SDZ071-170200-
NORTHWEST IOWA

CITY           SKY/WX    TMP DP  RH WIND       PRES   REMARKS
CHEROKEE       CLOUDY    68  67  97 W13       29.73S
DENISON        CLOUDY    72  66  83 W10       29.78R
ESTHERVILLE    CLOUDY    69  68  96 SW15G22   29.64S
LE MARS        CLOUDY    70  64  83 W13G20    29.73F
ORANGE CITY    CLOUDY    68  66  94 W14G21    29.73R
SHELDON        CLOUDY    68  64  88 W14G23    29.69R
SIOUX CITY     LGT RAIN  70  66  87 NW10      29.75F FOG
SPENCER        CLOUDY    69  66  90 W16G25    29.68R
STORM LAKE       N/A     70  66  88 W12G22    29.73
$$

ABBREVIATIONS USED IN REMARKS
   TC - TEMPERATURE IN CELSIUS
  WCI - WIND CHILL INDEX
   HX - HEAT INDEX
  VSB - VISIBILITY





USA.gov is the U.S. government's official web portal to all federal, state and local government web resources and services.